Weather in Brașov

Romania     45°38′40″N   25°36′10″E
temp.,
°C
wind,
m/s
gust,
m/s
humid.,
%
clouds,
%
prec.,
mm/h
press.,
hPa
HPBL,
m
14 august, sun
sun1400:00+16s008024 0.3 101111
03:00+14ssw118546 0.3 101111
06:00+13se008766 0.0 101110
09:00+18ne0073100 0.3 1010207
12:00+24ne1258100 0.8 1009853
15:00+27ene1341100 2.8 10081610
18:00+25nne3445100 0.1 10061516
21:00+17se1180100 0.8 100811
15 august, mon
mon1500:00+15sw11893 0.1 100912
03:00+14sw119412 0.1 100914
06:00+13wsw009551 0.0 100910
09:00+18ene007811 0.0 1009278
12:00+25wnw22485 0.0 10071295
15:00+29wnw343488 0.0 10062667
18:00+23ene245723 0.1 1006389
21:00+17wsw119156 2.1 100817
16 august, tue
tue1600:00+17wsw119122 0.2 100912
03:00+15wsw11933 0.3 100911
06:00+14sw11924 0.0 100911
09:00+19wnw11762 0.0 1009235
12:00+27wnw46425 0.0 10091508
15:00+30nw562927 0.0 10073023
18:00+27wnw684299 0.0 10081338
21:00+18w227130 0.0 101114
17 august, wed
wed1700:00+17ssw117299 0.0 101114
03:00+15sse117418 0.0 101113
06:00+14ese01797 0.0 101110
09:00+21ene10525 0.0 1011224
12:00+28wnw45355 0.0 10101610
15:00+31wnw562667 0.0 10093378
18:00+30nw462841 0.0 10092804
21:00+22sw225298 0.0 101128
18 august, thu
thu1800:00+19ssw11651 0.0 101214
03:00+17s11680 0.0 101212
06:00+16ese117016 0.0 101211
09:00+23e11485 0.0 1012206
12:00+26nw244181 0.0 1011402
15:00+34wnw582224 0.0 10093676
18:00+32nw582512 0.0 10092967
21:00+23sw33480 0.0 101032